DW3201 Weather Reports


time (UTC)temp
F
wind
direction
speed
knots
gust
knots
rain 1hr
in
rain 24hr
in
rain mn
in
humidity
%
barometer
mb
20260901114558 73 0 0.0 0.0 0.00 0.00 0.00 95 1013.5
20260901113104 72 0 0.0 0.0 0.00 0.00 0.00 94 1013.3
20260901111558 72 0 0.0 0.0 0.00 0.00 0.00 94 1013.2
20260901104605 72 0 0.0 0.9 0.00 0.07 0.00 94 1012.9
20260901103059 72 0 0.0 0.0 0.00 0.07 0.00 94 1012.9
20260901101608 72 0 0.0 0.0 0.00 0.07 0.00 93 1012.9
20260901100101 73 0 0.0 0.0 0.00 0.07 0.00 92 1013.1
20260901094601 73 0 0.0 0.9 0.00 0.10 0.00 92 1013.0
20260901093110 74 256 0.0 0.9 0.00 0.10 0.00 92 1013.0
20260901091603 74 266 0.9 2.6 0.00 0.10 0.00 92 1013.1
20260901090059 74 257 0.9 2.6 0.00 0.10 0.00 93 1013.0
20260901084600 73 260 0.9 1.7 0.00 0.10 0.00 94 1013.1
20260901083059 72 257 0.0 0.9 0.00 0.10 0.00 95 1013.0
20260901081603 71 0 0.0 0.0 0.00 0.10 0.00 94 1012.9
20260901080207 71 0 0.0 0.0 0.00 0.10 0.00 94 1012.9
20260901074557 72 0 0.0 0.0 0.00 0.10 0.00 94 1013.0
20260901073102 72 0 0.0 0.0 0.00 0.10 0.00 94 1013.0
20260901071600 72 0 0.0 0.0 0.00 0.10 0.00 93 1012.9
20260901070132 73 0 0.0 0.0 0.00 0.10 0.00 91 1012.9
20260901064611 74 0 0.0 0.9 0.00 0.10 0.00 91 1012.8
20260901063105 74 274 0.0 0.9 0.00 0.10 0.00 93 1012.9
20260901061610 73 0 0.0 0.9 0.00 0.10 0.00 94 1013.0
20260901060103 73 0 0.0 0.9 0.00 0.10 0.00 95 1013.0
20260901054608 72 264 0.0 0.9 0.00 0.10 0.00 95 1013.0
20260901053111 71 0 0.0 0.0 0.00 0.10 0.00 94 1013.0
20260901051600 71 0 0.0 0.0 0.00 0.10 0.00 94 1013.0
20260901050104 72 0 0.0 0.0 0.00 0.10 0.00 94 1013.1
20260901044617 72 0 0.0 0.0 0.00 0.10 0.10 94 1013.1
20260901043059 72 0 0.0 0.0 0.00 0.10 0.10 94 1013.1
20260901041558 73 0 0.0 0.0 0.00 0.10 0.10 94 1013.0
20260901040104 73 0 0.0 0.0 0.00 0.10 0.10 94 1013.2
20260901034559 73 0 0.0 0.0 0.00 0.10 0.10 93 1013.2
20260901033056 73 0 0.0 0.0 0.00 0.10 0.10 93 1013.3
20260901031559 74 0 0.0 0.0 0.00 0.10 0.10 92 1013.3
20260901030059 74 0 0.0 0.0 0.00 0.10 0.10 92 1013.3
20260901024603 74 0 0.0 0.0 0.00 0.10 0.10 92 1013.2
20260901023102 75 0 0.0 0.0 0.00 0.10 0.10 91 1013.3
20260901021611 75 0 0.0 0.0 0.00 0.10 0.10 91 1013.2
20260901020104 76 0 0.0 0.9 0.00 0.10 0.10 89 1013.2
20260901014604 76 0 0.0 0.0 0.00 0.10 0.10 89 1012.9
20260901013121 76 0 0.0 0.0 0.00 0.10 0.10 89 1012.7
20260901011602 77 0 0.0 0.0 0.00 0.10 0.10 88 1012.6
20260901010115 78 0 0.0 0.0 0.00 0.10 0.10 86 1012.4
20260901004604 79 0 0.0 0.9 0.00 0.10 0.10 84 1012.3
20260901003102 79 0 0.0 0.0 0.00 0.10 0.10 83 1012.2
20260901001606 80 0 0.0 0.0 0.00 0.10 0.10 82 1012.2
20260901000058 80 0 0.0 0.9 0.00 0.10 0.10 81 1012.2
20260831234600 82 0 0.0 0.9 0.00 0.10 0.10 78 1012.1
20260831233100 82 0 0.0 0.9 0.00 0.10 0.10 76 1011.9
20260831231609 82 278 0.9 1.7 0.00 0.10 0.10 75 1011.8
20260831230105 83 277 0.0 2.6 0.00 0.10 0.10 74 1011.8
20260831224635 83 233 1.7 5.2 0.00 0.10 0.10 72 1012.0
20260831223059 83 277 2.6 5.2 0.00 0.10 0.10 71 1011.7
20260831221620 83 269 3.5 7.0 0.00 0.10 0.10 70 1011.7
20260831220107 83 262 2.6 8.7 0.00 0.10 0.10 71 1011.9
20260831214604 84 311 1.7 4.3 0.00 0.12 0.10 71 1011.7
20260831213101 83 256 2.6 5.2 0.00 0.12 0.10 73 1011.9
20260831211607 83 239 1.7 5.2 0.00 0.12 0.10 71 1012.0
20260831210103 83 274 0.9 2.6 0.00 0.12 0.10 74 1011.9
20260831204559 82 0 0.0 0.9 0.00 0.17 0.10 75 1011.5
20260831203058 81 0 0.0 0.0 0.00 0.17 0.10 76 1011.3
20260831201600 81 0 0.0 1.7 0.00 0.17 0.10 74 1011.3
20260831200100 81 263 1.7 3.5 0.00 0.17 0.10 73 1011.9
20260831194620 83 270 0.0 0.9 0.00 0.19 0.10 72 1011.8
20260831193100 83 0 0.9 2.6 0.00 0.19 0.10 70 1011.7
20260831191559 84 251 2.6 4.3 0.00 0.19 0.10 68 1011.8
20260831190119 84 260 3.5 6.1 0.00 0.19 0.10 66 1011.9
20260831184603 85 276 3.5 7.0 0.00 0.26 0.10 63 1011.7
20260831183108 84 264 3.5 8.7 0.00 0.26 0.10 63 1011.9
20260831181600 84 255 5.2 8.7 0.00 0.26 0.10 63 1012.0
20260831180100 85 280 3.5 8.7 0.00 0.26 0.10 62 1012.0
20260831174610 85 283 1.7 5.2 0.00 0.26 0.10 65 1011.8
20260831173102 83 274 2.6 7.0 0.00 0.26 0.10 67 1012.1
20260831171605 82 285 2.6 5.2 0.00 0.26 0.10 69 1012.3
20260831170106 81 284 0.9 4.3 0.00 0.26 0.10 71 1012.4
20260831164607 81 291 2.6 5.2 0.00 0.26 0.10 70 1012.5
20260831163100 81 281 2.6 7.0 0.00 0.26 0.10 71 1012.6
20260831161601 80 278 1.7 4.3 0.00 0.26 0.10 70 1012.5
20260831154630 79 277 1.7 4.3 0.00 0.26 0.10 71 1012.4
20260831153104 78 257 1.7 3.5 0.00 0.26 0.10 73 1012.5
20260831151612 78 285 1.7 5.2 0.00 0.26 0.10 73 1012.7
20260831150056 77 267 1.7 3.5 0.00 0.26 0.10 76 1012.5
20260831144602 76 248 0.9 1.7 0.00 0.26 0.10 79 1012.5
20260831143108 75 0 0.9 1.7 0.00 0.26 0.10 82 1012.5
20260831141559 74 287 0.0 1.7 0.00 0.26 0.10 83 1012.5
20260831140109 74 323 0.0 1.7 0.00 0.26 0.10 82 1012.4
20260831134603 73 44 0.0 4.3 0.00 0.26 0.10 82 1012.4
20260831133059 73 72 0.0 2.6 0.00 0.26 0.10 82 1012.4
20260831131610 73 75 0.0 2.6 0.00 0.26 0.10 84 1012.1
20260831130121 72 60 0.0 2.6 0.00 0.26 0.10 85 1012.2
20260831124603 72 0 0.0 1.7 0.00 0.26 0.10 86 1012.2
20260831123109 71 32 0.0 1.7 0.00 0.26 0.10 89 1012.5
20260831121615 70 20 0.0 1.7 0.00 0.26 0.10 90 1012.5
20260831120101 70 43 0.0 2.6 0.00 0.26 0.10 91 1012.4